Find Starlink 3996

NORAD ID: 52617 Int'l Des: 2022-052 Owner: SPXS Country: US Constellation: starlink operational
LEOCIRCULAR

Live-Position

3D-Globus wird geladen...

Über Starlink 3996

Beschreibung wird geladen...

Nächste Überflüge

Passes for default location (London). Set your location on the main map for personalized predictions.

Höhenverlauf

Loading altitude history...

Zweizeiliger Elementsatz

1 52617U 22052V 26124.12174831 .00000665 00000-0 59891-4 0 9997
2 52617 53.2188 20.2760 0001402 101.1548 258.9602 15.08839610219357
Epoch: 4. Mai 2026 • Age: 11 hours

Aktueller Status

Höhe 556.3 km
Geschwindigkeit 7.58 km/s
Subsatellitenpunkt -46.30°S, 176.15°W
Startdatum 14. Mai 2022
Alter 3.9 years
Typ internet

Technische Details

Klassifizierung Payload
Masse 297.00 kg
Trockenmasse 275.00 kg
Gesamtmasse 297.00 kg
Länge 0.20 m
Durchmesser 2.80 m
Spannweite 9.00 m
Form Box + pan
Hersteller SPXS
Bus-Typ Starlink
Phasenstatus In Orbit
Besitzer/Staat SPXS/US

Most Searched